sat.trackr.live / text

‹ back to catalog

YAOGAN-12

NORAD 37875 · 2011-066B

PAYLOAD ACTIVE UNKNOWN

§ Identity

Operator
Country
PRC
Launch date
2011-11-09
Launch site
TAISC
Launch vehicle
Mass (kg)
RCS (m²)
5.75

External: N2YO · Heavens-Above · Gunter

§ Orbital elements

Epoch: 2026-05-25T04:34:36.628608Z

Period
94.35 min
Inclination
97.1160°
Eccentricity
0.0008434
Mean motion
15.26256192 rev/d
Perigee alt
481.2 km
Apogee alt
492.8 km
Semi-major
6,865.2 km
B*
1.7928e-4
RAAN
184.8436°
Arg perigee
314.6364°
Mean anomaly
45.4187°
Rev number
80,853

§ Raw data

YAOGAN-121 37875U 11066B   26145.19070172  .00004580  00000+0  17928-3 0  99952 37875  97.1160 184.8436 0008434 314.6364  45.4187 15.26256192808538

JSON: /api/v1/satellites/37875 · /tle

For live sub-satellite position, see the globe view (requires WebGL).

§ Visibility from observer

Set your observer location to see the next 7 days of passes ≥ 10°. The values pass through the URL so the page stays shareable.

No JS? Fill the form by hand. The geolocation button needs JavaScript.

§ Radio — SatNOGS DB

ModeDescriptionDownlinkUplink
FM S-band telemetry 2.208 GHz

1 transmitter · refreshed weekly from db.satnogs.org